GFSFLT2_sfc_30mbdewp_000.txt.gz
Dewpoint
51 51 40 34 33 32 33 32 32 31 32 32 31 32 31 31 30 29 29 29 29 28 28 28 29 31 32
50 46 39 31 31 31 31 30 31 28 29 28 31 29 29 29 28 28 28 28 28 28 26 26 27 27 30
50 40 35 33 33 33 33 32 30 26 26 30 26 27 27 28 27 28 27 27 27 26 27 26 27 27 28
49 39 35 34 34 35 33 32 29 21 27 25 24 23 26 26 26 25 26 27 28 27 26 27 27 28 29
42 38 35 34 34 33 32 30 24 24 24 22 21 20 21 22 22 23 26 28 28 26 26 26 27 26 27
43 41 37 34 33 32 29 23 15 27 23 19 20 20 20 20 21 25 27 28 26 26 26 25 25 25 25
43 40 36 32 32 30 26 20 17 19 21 19 20 21 20 19 21 24 27 27 24 25 25 24 24 24 24
42 36 33 32 31 26 22 20 21 19 23 22 18 17 19 19 19 23 26 24 24 24 23 23 23 24 25
34 33 32 29 23 21 24 22 17 15 22 22 18 18 17 16 18 20 21 21 22 22 23 22 23 24 24
32 30 28 27 24 23 25 22 20 13 21 20 18 18 16 15 16 15 14 14 17 19 20 22 23 23 22
30 28 27 26 25 24 26 25 22 21 21 22 22 20 18 16 14 14 13 12 12 14 16 18 19 22 22
26 24 24 24 26 26 27 26 25 24 23 24 21 20 19 17 12 11 12 13 13 13 14 16 18 19 21
21 22 24 26 25 25 26 26 26 25 24 24 23 22 21 19 16 15 14 12 12 13 12 14 15 16 17
21 22 24 23 23 24 23 22 20 20 23 25 24 22 20 19 17 15 14 12 11 12 13 14 15 16 16
20 20 19 21 22 23 22 20 19 18 20 21 23 22 21 21 17 16 15 12 12 13 14 14 15 16 17
20 18 19 22 21 21 20 20 19 18 19 20 19 18 17 17 20 16 13 11 12 13 14 15 16 17 18
21 22 23 23 22 19 19 19 18 19 20 20 18 17 13 11 10 20 15 12 12 13 14 15 17 18 18

GFSFLT2_sfc_30mbdewp_003.txt.gz
Dewpoint
52 51 42 37 35 34 38 36 38 36 36 36 34 33 33 32 32 32 31 30 30 30 30 30 29 29 29
52 52 45 38 35 34 33 33 34 34 33 32 31 32 31 30 31 31 30 29 29 29 29 28 28 28 29
51 51 42 36 34 34 35 33 32 33 30 30 31 30 29 30 29 30 29 29 28 28 28 28 28 28 29
51 44 40 37 37 36 35 35 34 30 25 27 27 26 26 27 28 28 28 28 28 29 29 27 27 27 29
50 43 40 38 37 37 36 35 34 29 25 25 26 27 24 24 26 25 26 27 29 29 28 27 27 26 27
50 46 45 42 39 36 34 30 26 26 26 24 22 22 23 23 22 23 26 28 29 29 27 27 27 26 25
49 47 47 43 39 35 32 28 23 27 23 20 21 22 23 21 22 23 25 27 29 27 26 26 25 25 25
51 49 45 40 38 35 30 24 22 20 23 21 22 21 21 22 22 22 24 27 26 25 26 25 25 25 25
43 41 38 36 31 26 24 22 19 17 24 23 20 19 20 19 19 20 24 24 23 22 23 24 25 25 26
37 36 34 32 28 27 26 23 20 16 23 22 19 19 19 16 18 19 18 17 16 18 20 21 22 25 24
32 30 29 28 27 29 29 27 23 22 26 24 23 22 20 18 18 17 17 17 16 15 16 18 21 22 22
31 29 27 27 27 27 28 29 29 26 25 25 22 22 21 19 17 15 16 17 17 15 15 16 18 18 20
30 28 27 28 29 29 28 28 28 27 26 26 24 23 22 19 19 18 18 16 17 16 15 15 15 17 17
27 27 28 27 26 27 25 25 24 25 25 26 25 24 21 20 20 20 20 17 15 15 15 15 16 17 17
26 25 25 26 26 27 26 24 21 21 23 26 25 25 24 23 20 20 19 18 16 14 15 14 15 16 17
24 23 24 25 24 25 24 22 21 20 21 22 21 20 19 21 23 21 20 16 14 14 14 14 15 17 19
24 25 26 25 24 23 22 21 20 20 21 21 19 18 16 14 16 24 20 16 15 12 13 15 16 17 19

GFSFLT2_sfc_30mbdewp_006.txt.gz
Dewpoint
53 53 51 50 47 42 42 42 44 46 45 43 41 40 38 37 35 33 33 32 32 32 32 32 32 31 30
52 53 50 46 44 42 41 40 41 43 42 40 39 37 35 35 32 32 32 31 31 31 30 30 30 30 30
52 53 49 43 41 41 40 38 37 38 39 37 36 34 35 31 31 32 31 31 30 30 29 29 29 30 28
53 52 45 41 42 41 38 38 36 36 36 33 33 33 32 31 30 29 30 30 30 29 29 29 29 28 28
52 49 43 40 41 41 41 38 38 33 28 27 29 29 28 28 29 29 29 28 29 29 29 29 29 28 28
52 50 47 46 44 42 41 37 34 31 27 26 25 25 26 24 25 25 25 26 27 29 29 29 28 27 27
53 52 50 48 44 42 41 38 34 28 26 22 23 22 23 23 25 25 25 26 27 28 29 28 27 27 26
54 54 52 50 46 44 41 33 28 28 25 13 23 21 23 24 25 24 25 25 26 28 28 26 26 26 26
53 53 53 49 44 38 34 32 25 22 23 20 20 20 20 20 21 22 22 24 26 26 25 24 25 26 26
43 44 44 44 42 40 33 31 28 26 25 20 20 19 15 20 19 20 20 23 20 20 20 21 22 23 24
36 34 34 33 33 33 34 32 27 23 26 23 22 22 19 19 19 18 18 17 18 19 19 18 19 21 23
32 31 30 30 31 31 31 30 28 25 27 23 21 21 19 18 16 17 17 17 18 17 17 18 18 19 21
32 31 30 30 30 29 29 29 28 28 26 23 20 21 19 17 17 19 19 19 19 20 18 17 15 16 15
32 31 30 28 27 27 25 25 24 24 26 25 23 22 21 21 20 19 19 19 19 19 17 17 17 17 17
29 28 27 27 26 26 25 25 23 23 23 24 25 24 22 20 20 20 20 20 19 19 17 14 15 16 16
28 27 26 26 25 26 26 24 21 21 22 23 22 19 17 18 23 20 20 20 20 17 15 14 13 15 17
27 26 26 25 25 25 24 21 21 20 20 20 18 16 13 7 14 22 22 21 20 18 16 13 14 15 17

GFSFLT2_sfc_30mbdewp_009.txt.gz
Dewpoint
53 53 53 52 52 52 51 50 50 52 52 52 52 51 48 45 44 41 40 38 36 35 34 34 34 34 34
53 53 53 53 52 50 49 48 48 49 50 51 50 49 46 44 41 40 37 35 34 33 33 33 33 33 32
53 54 53 48 46 45 45 45 45 46 49 50 48 47 44 42 39 38 35 34 33 32 32 31 31 31 31
53 53 53 46 47 47 43 43 43 43 46 47 46 44 43 40 38 34 34 33 33 32 32 30 30 30 31
50 51 51 44 44 46 46 45 42 41 41 43 42 41 39 38 37 35 32 32 32 32 31 31 30 30 31
48 49 49 49 48 47 45 40 38 39 38 37 37 36 34 35 34 32 31 31 31 30 30 30 30 30 29
49 49 50 51 50 47 46 43 42 38 37 34 33 32 32 31 31 28 27 28 28 29 29 30 30 29 28
48 50 51 53 52 49 47 42 33 34 36 31 30 30 30 28 28 27 27 28 28 28 29 29 29 28 27
47 48 49 51 53 44 40 37 32 30 30 28 28 28 27 25 24 27 27 27 27 27 28 28 28 27 27
43 45 45 47 50 48 43 39 32 29 29 27 26 26 21 24 21 20 23 24 25 28 27 25 24 24 24
43 40 37 37 37 38 39 39 33 32 30 29 26 24 18 19 19 19 19 19 19 20 22 22 21 21 21
39 35 33 32 32 32 32 32 32 32 32 29 26 23 19 18 14 18 17 17 17 16 16 19 21 21 21
35 32 32 32 31 29 29 30 30 30 28 27 23 21 17 14 15 17 16 18 19 18 19 19 17 16 15
32 31 31 29 28 28 26 27 26 25 26 23 21 19 18 18 18 17 19 15 19 19 18 17 18 18 17
30 29 28 27 25 26 26 26 23 22 23 25 24 22 20 18 18 19 19 19 20 20 19 17 17 17 17
29 28 26 25 25 25 25 25 23 22 22 23 23 20 15 15 23 20 19 19 19 19 19 17 15 15 16
28 27 26 25 25 24 25 24 22 21 20 19 18 15 6 -4 11 23 19 20 21 20 19 18 16 15 16

GFSFLT2_sfc_30mbdewp_012.txt.gz
Dewpoint
52 53 54 54 53 52 52 51 51 51 52 53 53 54 54 55 55 53 51 49 47 45 43 41 37 37 37
49 50 52 54 54 54 52 52 52 52 53 52 53 54 54 54 53 51 49 47 45 44 40 37 36 37 36
47 48 50 52 53 52 53 52 52 52 51 52 53 54 54 53 51 49 48 46 43 40 37 36 36 35 35
46 46 47 49 51 51 50 47 48 48 48 49 52 53 53 52 49 47 46 43 41 38 35 34 34 33 33
44 45 46 47 46 47 48 48 47 47 46 46 49 50 50 49 47 45 44 41 40 38 35 34 33 32 32
41 42 43 46 47 47 48 47 45 43 43 43 45 45 46 46 44 44 41 40 39 36 34 33 33 32 31
38 39 40 42 46 46 47 47 46 42 42 40 40 41 40 41 43 41 40 38 36 34 33 32 32 31 31
38 38 39 41 43 45 46 48 40 39 41 37 34 36 34 37 41 40 38 36 35 34 33 32 31 31 31
39 40 41 42 43 44 43 40 39 34 36 33 30 29 31 32 36 38 37 35 34 31 31 30 30 30 29
40 41 41 41 42 44 43 42 40 32 32 33 29 28 27 28 30 32 35 34 32 30 30 30 30 29 27
38 40 41 42 37 36 37 42 42 35 32 32 28 26 26 24 26 29 29 25 27 28 28 29 29 28 24
34 36 38 36 33 32 32 33 34 34 34 32 27 26 24 22 22 22 19 19 21 21 20 22 25 25 25
32 33 33 33 31 29 29 29 28 28 28 28 27 26 25 23 19 17 16 17 17 16 16 16 17 18 19
31 32 31 29 27 28 27 27 25 23 26 26 25 23 19 18 17 18 17 11 18 18 18 18 18 17 16
30 29 28 26 26 27 27 26 23 22 22 23 24 22 19 18 14 16 16 17 18 19 19 17 17 17 18
29 28 27 25 25 25 26 24 23 22 21 22 22 17 11 15 21 17 19 18 18 19 19 17 16 17 17
27 27 26 25 25 24 25 24 22 20 19 19 17 10 -3 -9 10 23 17 18 19 19 19 19 17 16 16

GFSFLT2_sfc_30mbdewp_015.txt.gz
Dewpoint
44 46 47 49 51 54 54 54 53 52 53 54 54 54 54 54 54 54 55 55 55 55 56 54 52 49 46
42 43 44 47 49 50 51 53 54 53 53 53 53 53 54 54 54 54 54 55 55 55 55 53 50 48 46
39 42 43 46 47 48 49 51 53 54 53 53 54 54 54 55 54 54 54 54 54 54 53 51 49 46 41
35 36 38 40 43 45 46 47 49 51 51 52 52 52 53 54 54 54 54 54 53 51 50 48 45 43 41
31 32 34 37 37 41 42 43 45 48 48 49 49 49 50 52 53 53 53 52 50 49 47 45 43 41 39
30 29 31 33 36 38 39 40 40 44 47 47 48 46 48 50 51 52 50 49 48 46 44 42 40 39 37
29 30 32 33 36 36 37 37 38 43 44 44 45 44 46 46 49 49 47 46 45 44 42 40 39 37 35
30 33 35 37 38 38 38 38 39 41 43 40 42 41 39 41 46 47 45 44 43 42 41 39 38 37 36
35 36 36 37 39 40 39 37 36 38 40 41 38 33 33 35 42 45 43 42 41 40 39 39 38 36 35
34 33 34 34 36 39 40 38 37 37 37 37 32 30 29 29 33 41 41 40 39 38 38 38 36 34 31
30 30 30 32 36 37 37 37 36 35 39 36 30 29 28 24 28 30 32 34 35 37 38 37 34 31 29
30 30 29 32 33 34 33 32 32 31 36 34 30 28 25 23 23 26 28 29 31 32 33 34 33 33 29
29 29 30 32 32 30 29 28 27 26 27 29 29 27 27 24 21 22 24 24 26 26 25 27 25 23 27
29 30 30 30 28 28 27 26 24 23 25 26 26 26 23 23 24 23 23 22 23 22 20 18 18 18 19
29 27 27 28 26 27 27 26 23 21 21 23 23 23 22 21 21 21 19 18 19 18 17 16 17 17 17
28 27 26 26 25 26 26 24 22 21 21 22 21 17 12 17 18 16 16 16 18 18 17 15 14 17 17
28 26 26 25 26 25 25 23 21 20 18 18 15 5 -4 -3 13 20 15 17 17 18 18 17 15 16 16

GFSFLT2_sfc_30mbdewp_018.txt.gz
Dewpoint
36 36 27 33 41 46 47 48 49 50 53 54 54 54 54 54 54 55 56 57 56 57 57 56 56 57 57
31 31 30 36 37 37 39 43 46 49 50 51 53 54 54 54 54 54 54 55 56 56 56 56 56 58 57
29 30 32 33 36 35 37 40 44 46 48 50 50 51 52 54 54 54 54 54 54 55 56 56 55 57 57
30 29 29 31 33 33 33 36 37 40 43 44 48 50 51 51 53 53 53 54 54 54 54 55 55 56 56
28 29 27 27 27 28 31 32 34 37 39 41 43 46 48 49 50 50 51 52 52 53 54 55 55 56 54
26 26 25 25 27 28 31 32 31 35 37 38 39 43 46 48 48 49 50 51 52 53 53 54 53 51 49
26 26 28 29 29 29 33 34 33 35 35 35 38 38 41 46 47 48 49 49 52 52 52 50 48 47 47
29 30 32 33 35 35 33 34 37 37 37 35 37 38 41 43 44 45 46 47 48 50 48 46 45 44 42
28 30 31 32 31 32 32 32 31 34 38 38 38 38 36 36 38 42 45 47 47 45 44 43 42 41 40
31 29 28 28 29 30 32 30 31 30 36 38 38 35 34 30 33 37 45 46 45 43 42 41 40 37 37
25 27 27 29 30 32 34 32 30 28 32 35 34 32 32 29 29 31 40 42 41 41 40 39 38 36 34
25 26 26 28 29 29 31 32 30 27 28 28 30 31 28 25 27 28 30 32 35 34 36 38 38 37 35
24 24 25 27 29 28 30 30 29 26 25 26 29 28 28 26 23 24 26 27 31 31 34 36 36 35 34
23 25 25 27 26 27 27 27 25 24 25 26 25 26 24 25 26 24 25 25 27 29 28 27 28 31 31
23 23 23 27 25 28 26 26 23 22 21 23 24 24 24 25 22 23 23 23 24 24 26 23 23 22 23
22 22 24 25 25 26 26 24 22 21 20 20 21 20 19 22 24 21 20 20 21 22 22 20 18 17 17
22 23 25 25 25 24 24 23 20 19 18 17 15 10 4 11 18 20 17 18 18 17 16 14 14 15 16

GFSFLT2_sfc_30mbdewp_021.txt.gz
Dewpoint
27 27 33 31 30 30 33 33 36 38 37 44 45 47 49 50 52 53 54 55 56 56 58 58 58 58 58
26 33 28 28 30 31 32 33 34 36 37 42 39 42 46 49 51 51 52 54 55 55 56 56 58 58 58
27 26 27 27 28 28 29 31 32 34 34 36 37 40 41 43 46 49 51 52 54 54 54 55 55 56 57
28 26 25 25 27 26 25 28 29 30 31 33 35 37 40 42 44 47 50 51 53 53 53 53 54 54 55
25 25 26 26 25 25 25 26 28 29 30 32 34 37 41 39 39 45 48 49 50 50 51 53 53 53 54
27 25 24 23 25 27 28 28 28 31 32 34 33 34 35 37 39 40 42 47 48 50 50 50 51 51 52
25 27 27 26 27 30 30 30 31 34 33 30 33 34 36 37 38 39 41 44 46 47 48 49 50 52 52
24 23 24 28 30 32 32 32 31 32 32 31 32 34 36 38 39 40 42 44 45 46 46 47 49 50 51
23 25 26 26 26 29 29 28 27 27 29 32 34 33 34 39 40 41 42 42 43 44 46 46 48 48 48
24 24 24 25 25 28 30 28 27 26 29 30 30 30 31 34 34 34 36 38 40 42 46 46 44 42 42
21 22 23 24 25 28 30 30 27 26 28 30 29 29 31 32 32 33 33 40 45 46 44 43 41 39 38
20 21 22 23 24 26 27 31 31 29 31 28 25 26 27 29 29 30 30 36 41 40 39 39 38 38 37
21 21 22 23 24 25 26 29 31 30 29 26 25 25 27 28 27 27 29 29 35 36 35 34 34 35 35
21 22 23 22 22 24 27 27 27 27 27 26 26 26 27 29 29 27 27 28 31 30 30 34 34 35 35
21 21 21 22 22 27 27 27 24 22 22 24 26 27 26 28 24 26 26 26 29 29 28 26 28 33 33
21 21 21 22 24 26 27 24 22 21 20 20 20 22 24 24 26 23 23 23 26 28 28 25 23 27 30
21 21 21 24 25 25 24 23 21 20 18 18 17 18 20 17 21 25 22 23 24 24 25 25 24 24 26

GFSFLT2_sfc_30mbdewp_024.txt.gz
Dewpoint
24 24 23 23 25 23 24 24 26 26 28 30 32 34 39 41 41 43 47 49 50 51 52 54 55 55 56
25 23 24 23 24 23 22 22 24 24 25 27 29 32 33 37 39 42 43 44 47 50 51 52 54 55 56
24 25 25 24 23 23 24 24 23 24 23 24 26 29 31 34 36 39 41 43 47 49 50 52 53 54 54
24 24 25 25 24 24 24 24 24 25 26 27 29 30 31 32 35 38 40 40 44 48 50 51 53 53 53
25 26 23 21 22 23 24 24 24 26 28 29 29 32 33 34 35 34 37 38 42 42 47 50 51 52 53
26 24 20 21 24 22 23 23 24 26 26 28 31 32 32 33 33 36 36 37 39 40 42 46 50 50 50
21 21 22 23 23 24 26 28 29 29 29 27 28 30 32 33 34 35 36 38 40 40 42 45 47 47 48
20 21 25 27 28 29 29 28 28 28 29 29 30 29 31 32 33 34 37 40 40 41 43 45 45 45 47
22 22 22 22 23 25 26 26 24 25 27 29 28 30 33 32 32 31 37 39 41 42 43 44 44 45 46
21 20 20 21 22 24 28 25 24 24 25 28 27 28 26 28 34 35 35 37 38 39 40 42 43 44 46
19 20 21 22 23 24 26 27 24 24 25 28 28 27 28 26 27 30 33 35 35 38 41 43 45 44 43
20 20 21 21 22 24 25 25 27 27 28 30 27 27 25 24 24 28 33 33 34 40 42 44 44 43 42
20 20 21 22 24 24 26 26 28 30 31 30 27 25 25 23 24 28 31 31 36 34 34 36 37 39 38
21 22 22 23 23 25 25 26 28 28 29 28 27 26 25 25 27 29 29 28 31 32 32 32 33 33 35
21 21 21 22 23 25 26 27 24 23 23 25 27 27 28 28 28 30 29 28 31 31 31 30 31 32 33
21 21 21 21 23 26 26 25 23 22 20 21 20 22 26 26 28 26 27 27 29 31 31 29 29 31 33
21 21 21 23 25 25 25 23 20 20 19 19 19 22 22 18 23 27 25 27 28 28 29 27 27 31 33

GFSFLT2_sfc_30mbdewp_027.txt.gz
Dewpoint
21 23 24 24 23 24 25 25 25 23 23 24 25 26 26 27 29 32 34 36 38 40 44 46 49 50 52
22 24 23 22 23 24 24 24 24 24 23 23 25 24 25 26 28 30 32 33 36 39 41 44 46 49 51
24 23 23 24 25 26 23 20 21 23 23 22 23 25 28 28 29 31 34 34 35 37 41 43 45 47 49
24 24 25 25 26 22 19 21 23 24 22 21 23 24 25 27 29 32 35 36 36 33 40 41 45 48 48
25 26 28 24 21 20 20 21 22 22 23 24 25 29 30 29 30 32 32 34 34 35 35 37 40 42 48
28 27 22 19 20 20 21 21 21 23 25 26 26 25 26 28 28 29 30 31 32 34 35 36 40 42 44
20 21 19 19 20 24 25 25 23 24 25 24 27 27 29 29 29 27 28 32 33 33 36 39 41 42 44
18 18 21 24 26 25 26 26 25 25 25 25 25 28 26 29 30 31 32 31 33 35 36 39 42 42 44
20 21 20 21 21 21 24 23 21 22 24 23 24 26 27 28 27 28 31 37 37 39 39 41 42 44 45
19 19 19 19 20 21 24 23 22 21 21 23 24 25 23 26 29 30 29 29 32 37 36 40 41 41 42
18 19 20 21 21 22 23 25 23 22 23 24 25 25 25 25 25 26 27 29 35 34 35 36 38 40 41
20 19 20 20 22 23 23 25 26 26 27 28 25 25 24 24 22 24 26 30 34 33 36 40 42 41 44
20 20 21 23 24 24 25 25 27 28 29 30 28 26 25 22 21 22 25 31 32 32 35 37 40 42 41
21 21 22 22 23 24 24 25 26 26 27 30 28 27 24 25 25 24 27 28 31 32 32 32 35 37 38
20 20 21 22 22 24 27 26 24 22 21 23 25 25 25 27 27 30 29 30 31 31 32 31 31 35 38
20 20 21 21 22 23 24 23 22 22 21 21 21 22 25 27 28 27 29 29 31 31 32 30 30 33 35
20 20 20 21 22 22 21 21 21 21 22 22 20 19 21 18 24 29 27 29 29 29 31 31 30 32 36

GFSFLT2_sfc_30mbdewp_030.txt.gz
Dewpoint
19 20 23 23 22 22 22 23 24 25 25 25 22 22 24 25 27 26 25 27 29 30 31 36 37 41 44
23 23 22 23 23 22 23 24 25 25 22 21 22 23 25 25 23 24 25 29 30 31 31 32 33 35 41
23 24 24 23 22 24 29 25 21 20 19 21 22 22 22 23 25 27 28 27 30 31 34 35 35 38 39
26 27 22 24 29 26 20 20 19 20 20 21 22 23 24 26 27 28 28 27 28 30 33 35 38 37 40
23 22 27 19 19 20 19 18 18 20 21 23 23 24 25 25 25 26 27 29 30 30 31 34 40 38 38
27 21 17 17 21 19 18 19 20 23 23 24 24 23 24 25 26 26 32 29 37 34 32 30 34 34 37
19 18 18 21 19 22 24 25 24 24 23 22 23 23 24 26 24 26 27 28 32 31 33 34 35 35 36
17 18 21 22 23 23 23 23 23 22 22 21 23 24 22 23 24 25 25 27 27 29 31 29 32 36 38
23 22 19 19 19 20 23 22 19 19 21 20 21 22 23 23 24 25 27 35 33 34 34 35 35 39 37
18 17 18 19 20 21 24 21 20 19 18 20 22 22 20 22 24 27 25 27 27 26 29 35 38 40 40
16 19 19 19 20 22 25 24 21 20 21 23 23 23 23 23 24 25 30 26 27 27 27 33 34 36 40
19 20 20 21 22 22 24 25 26 25 26 27 24 24 23 22 20 21 23 24 26 27 32 34 37 37 40
20 19 21 22 23 23 24 24 26 28 29 26 25 24 24 22 21 22 24 25 29 31 31 34 36 38 38
20 21 21 21 21 23 23 25 24 24 26 25 26 24 21 22 23 24 26 24 31 31 32 35 37 39 39
20 19 19 20 20 22 24 23 22 22 23 23 23 23 24 23 24 26 28 29 31 31 32 32 34 37 39
19 20 20 20 20 22 23 23 21 22 23 23 21 20 24 25 29 26 28 29 31 31 32 31 32 35 38
20 20 20 21 21 22 22 22 21 24 23 23 20 19 18 18 24 31 27 29 31 30 32 32 30 32 34

GFSFLT2_sfc_30mbdewp_033.txt.gz
Dewpoint
19 19 21 23 21 22 24 23 22 24 26 29 27 23 23 22 24 25 24 29 31 30 28 33 34 34 34
21 24 24 22 23 25 22 25 26 27 25 23 22 21 21 22 23 25 24 24 24 25 26 25 29 34 35
24 22 22 28 24 24 27 21 20 19 19 19 20 20 22 23 24 24 25 26 30 30 31 32 32 31 33
22 27 22 23 28 17 15 17 19 19 19 20 21 22 23 23 23 24 24 26 26 27 28 28 29 29 31
24 23 26 18 16 17 18 19 20 19 20 21 24 25 24 23 22 23 23 25 27 28 29 31 31 30 33
26 21 18 18 19 18 20 23 21 23 22 21 21 21 21 22 23 23 25 28 30 25 34 29 31 34 34
20 20 20 19 21 25 24 22 22 22 21 20 21 20 21 22 23 22 24 23 24 27 28 30 33 32 32
19 20 23 25 21 21 24 24 23 21 19 19 21 20 20 20 21 23 24 24 26 29 29 30 31 29 29
24 21 18 18 20 24 22 20 17 17 18 20 20 20 21 21 22 23 24 26 29 33 33 33 35 34 33
16 15 17 19 21 22 23 19 19 18 17 20 21 22 20 21 22 24 25 25 25 25 27 28 28 29 31
16 18 20 21 21 23 24 23 20 19 21 25 23 23 22 22 23 24 25 25 26 27 25 26 28 29 32
19 19 19 20 21 22 23 24 25 24 26 27 24 23 21 18 18 20 22 24 26 26 27 28 29 30 33
19 19 20 21 22 22 23 23 23 25 27 27 27 25 22 18 18 20 23 24 28 28 28 30 31 33 32
19 20 21 21 21 22 21 22 23 22 23 25 27 25 21 20 21 21 25 25 28 31 31 32 33 35 35
20 19 19 20 20 21 23 23 21 21 22 24 24 23 23 22 20 24 26 28 31 31 32 33 36 37 38
19 19 20 19 20 21 22 22 21 22 24 23 23 20 22 24 28 27 28 28 31 31 32 32 32 37 40
19 20 19 20 20 21 20 21 22 24 24 23 22 21 18 18 22 31 27 29 32 31 31 31 31 34 37

GFSFLT2_sfc_30mbdewp_036.txt.gz
Dewpoint
20 20 23 23 23 23 23 23 24 25 26 24 23 22 23 24 26 26 27 25 25 26 28 30 32 34 35
25 22 20 20 21 25 25 24 25 25 20 20 20 20 21 21 22 23 25 25 25 27 26 26 26 28 28
19 20 21 26 22 25 26 18 17 17 18 19 21 21 22 23 23 24 25 27 27 28 28 28 29 30 32
23 26 24 22 27 17 16 17 17 17 19 21 22 21 22 23 23 23 25 26 25 25 25 25 25 29 30
21 21 25 17 17 18 18 18 19 22 25 20 20 22 22 21 21 21 22 22 23 24 26 27 29 30 29
25 19 18 18 19 19 21 23 18 19 19 21 21 20 20 21 21 22 22 23 25 27 29 31 31 33 31
20 19 18 19 25 24 21 21 20 21 21 20 20 19 20 20 21 22 22 23 24 25 26 28 29 29 30
17 20 25 23 20 23 24 24 22 19 18 18 20 19 20 20 22 23 23 24 25 25 26 28 28 29 29
25 20 18 19 21 25 22 20 17 16 18 18 19 20 21 21 22 23 23 24 25 27 30 31 32 33 31
16 16 18 19 21 22 23 19 18 17 16 19 20 22 20 21 22 23 23 24 24 24 25 26 26 31 33
17 18 19 19 20 22 24 22 19 18 19 23 22 21 22 21 21 21 21 21 23 26 27 27 26 27 32
19 18 18 20 21 22 22 24 24 23 24 25 22 23 21 20 19 18 19 21 25 26 27 28 29 27 27
18 18 19 20 21 21 22 22 22 24 26 27 25 25 23 20 19 19 21 22 25 27 27 27 27 29 27
19 19 19 19 19 20 20 21 22 21 23 24 27 26 22 20 20 20 22 22 28 30 30 30 29 29 29
18 18 18 18 19 19 21 21 20 21 22 24 24 24 24 22 20 24 27 28 31 31 31 33 31 31 31
17 17 18 18 18 20 19 21 20 21 24 24 23 22 21 22 29 27 29 28 31 31 33 33 33 36 36
17 18 19 18 18 18 19 20 20 23 23 24 23 22 19 19 21 30 29 31 31 31 31 31 31 34 37

GFSFLT2_sfc_30mbdewp_039.txt.gz
Dewpoint
20 22 22 19 19 20 21 22 23 24 26 25 22 21 22 22 24 25 26 28 29 29 31 31 31 32 33
24 20 19 20 21 22 25 26 30 25 21 19 20 21 21 23 25 28 27 26 25 26 27 28 29 31 31
20 21 22 24 24 26 25 18 17 17 18 19 20 21 22 24 24 25 28 28 28 28 29 29 29 30 31
22 23 24 26 23 17 15 17 17 18 20 21 22 22 22 21 21 22 22 23 24 25 26 27 28 29 31
24 23 19 15 16 17 17 18 22 23 20 19 19 19 20 21 21 21 22 23 23 24 24 26 27 28 28
23 18 17 16 17 19 23 20 18 20 19 22 22 20 20 20 21 22 23 24 24 26 29 28 29 29 29
18 17 17 19 25 23 21 21 20 21 21 20 19 18 19 18 20 22 23 25 25 26 27 28 28 29 30
17 21 26 21 20 23 24 24 22 19 18 18 19 18 18 19 21 22 23 24 25 26 27 26 27 29 28
26 20 19 20 22 25 21 20 17 16 17 18 18 19 20 20 21 23 23 24 25 27 25 26 27 29 29
16 17 19 19 20 21 23 19 18 16 16 19 19 20 18 19 21 22 23 23 23 24 25 26 25 26 30
17 18 19 19 19 20 21 22 19 18 19 23 21 20 20 20 21 21 22 22 23 24 24 27 28 30 31
18 18 18 18 19 20 21 22 23 22 24 25 22 22 21 20 19 20 21 24 26 25 25 26 29 30 30
18 17 18 19 20 19 20 21 21 22 24 25 25 25 24 22 20 20 23 23 24 26 26 26 26 28 28
18 18 18 18 18 19 19 19 20 20 22 24 28 26 23 23 22 21 23 23 29 30 31 30 28 28 28
17 17 17 17 17 18 19 19 19 19 20 24 25 25 25 25 22 24 27 30 31 31 31 30 28 28 29
17 16 16 17 17 18 18 19 19 20 22 24 24 22 23 22 29 27 29 30 31 32 32 32 30 30 30
16 16 18 17 17 17 17 19 19 21 23 24 23 22 21 20 22 28 27 30 31 31 31 31 31 34 32

GFSFLT2_sfc_30mbdewp_042.txt.gz
Dewpoint
20 22 22 20 20 21 22 22 23 25 24 24 23 22 22 23 26 27 28 28 28 29 30 30 30 32 33
23 20 20 21 22 24 27 26 24 24 22 20 21 22 23 25 26 29 29 29 28 28 28 29 30 31 30
19 21 22 24 26 21 18 16 16 17 19 20 21 22 23 24 25 27 27 28 27 27 27 28 29 30 30
22 25 25 20 18 16 15 17 18 19 21 22 22 22 21 22 22 22 23 23 23 24 25 26 26 27 29
24 20 18 16 16 17 17 20 23 20 19 19 20 20 21 22 22 22 22 23 24 24 24 25 26 28 28
20 18 16 16 17 20 23 20 18 20 20 21 21 20 20 20 20 21 23 24 25 25 27 28 28 29 30
17 17 17 20 25 22 21 22 21 21 21 19 18 18 18 18 20 21 23 24 25 26 27 28 28 29 27
18 21 26 22 20 22 24 24 22 19 18 17 18 18 18 19 21 22 23 24 25 26 27 27 28 28 29
26 21 19 21 21 23 20 19 16 16 17 17 18 19 19 20 21 22 22 23 24 26 26 26 27 29 31
16 16 18 18 20 19 21 18 17 15 15 19 19 21 18 18 19 21 22 23 24 26 28 29 28 26 27
16 17 18 18 18 19 20 21 18 17 18 22 20 20 20 20 20 22 22 24 26 26 27 29 31 31 31
17 17 17 18 18 19 20 20 21 21 22 22 21 21 20 20 20 22 23 25 27 26 26 27 30 30 31
18 17 17 18 18 18 19 19 20 20 22 23 24 24 24 23 21 22 24 24 25 26 28 27 26 26 26
17 17 17 17 17 17 18 18 19 18 21 24 27 27 24 23 24 23 24 24 30 32 31 32 28 28 27
17 17 16 16 16 17 18 18 17 18 19 22 25 25 25 25 24 24 27 28 31 31 31 30 28 27 27
16 16 16 16 17 17 17 17 17 19 19 23 24 23 22 23 29 28 28 29 30 31 32 30 30 28 29
16 16 17 17 16 16 16 17 17 19 22 22 23 23 20 20 23 28 28 29 30 31 31 31 31 32 30

GFSFLT2_sfc_30mbdewp_045.txt.gz
Dewpoint
20 21 20 19 19 21 22 22 23 22 22 23 24 25 25 25 26 27 28 29 29 30 30 30 31 32 34
21 21 19 20 22 24 20 17 17 18 20 22 23 23 24 25 27 27 27 28 28 29 29 29 31 31 31
20 21 22 25 20 18 17 17 17 18 20 21 22 24 25 25 25 25 25 26 27 28 28 28 28 29 30
23 25 21 19 20 17 17 18 18 20 21 21 22 22 22 23 24 24 24 25 25 25 26 26 27 27 27
23 20 20 17 16 17 18 21 21 20 20 19 20 21 22 22 22 22 22 24 25 26 27 28 27 28 28
22 18 17 17 18 21 24 20 19 19 19 20 21 20 20 20 20 22 23 24 25 26 27 29 32 31 31
18 17 19 20 26 24 22 22 21 22 21 19 19 18 19 18 20 22 24 25 26 27 27 28 30 29 29
19 22 26 24 21 22 24 24 22 19 17 17 18 18 19 20 21 22 24 25 26 27 28 28 28 28 28
25 23 20 20 21 24 21 19 17 17 17 17 18 19 20 21 22 21 22 23 27 29 31 31 31 30 30
16 15 17 17 20 19 21 18 18 16 15 19 20 20 18 18 20 22 23 23 26 28 31 33 33 33 32
16 16 17 18 18 19 20 21 18 17 18 21 20 20 20 20 21 23 23 25 27 27 27 29 32 33 31
17 18 19 19 20 20 20 21 21 20 21 22 20 20 20 20 20 23 25 27 28 28 29 29 30 33 33
18 18 19 19 20 20 20 20 20 21 22 22 23 23 24 23 23 24 25 27 29 29 32 32 31 31 28
18 18 19 19 19 19 19 19 19 19 21 23 26 26 26 25 26 25 26 27 30 32 32 32 32 30 28
18 18 17 17 17 18 19 19 18 18 19 22 24 26 26 26 25 26 29 30 31 31 31 31 31 30 28
17 17 17 17 17 19 18 18 18 19 20 22 24 24 24 24 27 29 29 29 31 32 32 30 31 29 29
17 17 18 18 17 17 17 18 18 19 22 24 24 24 21 21 24 26 28 30 30 30 31 31 30 30 29

GFSFLT2_sfc_30mbdewp_048.txt.gz
Dewpoint
17 18 19 18 18 20 21 21 19 17 19 22 23 24 26 27 27 28 28 29 30 31 32 32 31 32 32
20 20 18 19 21 20 17 15 17 17 20 22 24 24 25 26 27 27 28 28 29 30 32 31 31 31 32
21 21 21 24 21 18 18 17 17 18 20 21 22 24 25 25 25 26 26 26 27 27 27 28 29 30 31
21 24 26 20 20 17 17 18 19 20 21 21 22 22 22 23 24 25 25 26 26 27 27 27 28 29 30
27 23 21 17 15 17 19 20 22 20 21 20 20 22 23 23 22 22 23 24 25 26 27 29 30 30 29
24 20 15 15 18 20 23 22 20 20 19 21 21 21 21 22 21 22 23 25 26 27 28 29 29 29 30
18 16 17 19 24 26 23 22 22 22 21 20 20 19 20 19 21 23 24 26 27 27 28 29 30 30 30
17 19 23 26 24 22 24 23 23 20 19 19 20 20 21 22 22 24 25 26 26 26 28 30 33 33 33
22 25 22 20 21 23 23 21 19 19 19 18 19 21 22 22 23 22 23 24 26 27 28 29 31 34 34
20 16 17 18 20 20 23 21 20 18 17 20 21 20 19 19 22 24 25 25 26 27 28 29 30 33 33
15 17 18 19 20 21 22 23 21 20 20 22 21 20 21 21 22 24 25 27 28 29 28 29 29 32 33
17 19 20 21 22 22 22 23 23 22 23 23 20 21 21 20 20 23 26 28 30 30 31 33 34 34 34
19 20 21 22 23 22 23 23 23 23 24 24 24 24 24 22 22 25 26 28 31 31 32 33 32 33 31
20 20 21 21 21 22 21 21 21 22 23 25 26 26 25 25 26 25 27 28 31 32 32 32 33 34 32
20 20 19 20 20 21 21 22 20 20 21 24 26 27 28 27 26 27 28 30 31 31 31 31 33 33 31
19 19 19 19 20 21 21 21 20 20 21 23 26 25 25 26 28 28 29 29 30 31 32 30 30 32 30
19 19 20 21 19 20 20 21 20 21 22 24 25 26 23 22 25 28 29 29 30 30 31 30 30 32 32

GFSFLT2_sfc_30mbdewp_051.txt.gz
Dewpoint
19 20 19 20 20 20 23 22 22 19 20 22 23 24 26 26 27 28 30 30 31 31 33 33 35 34 34
20 21 21 20 21 24 23 18 18 19 20 22 23 24 25 26 26 26 27 28 28 29 31 32 32 33 33
20 20 21 23 27 22 20 20 19 19 20 21 23 24 25 25 25 25 25 26 27 27 28 28 30 30 32
21 23 25 25 21 19 18 19 20 21 23 22 22 22 23 22 24 25 25 25 26 27 27 28 28 29 30
25 28 23 20 17 18 19 20 22 25 21 21 21 21 23 23 22 22 23 25 26 26 28 28 29 29 31
27 23 20 18 18 20 22 24 22 22 21 21 22 22 22 22 22 23 24 25 27 27 28 29 30 31 31
20 18 18 18 22 24 25 23 22 22 22 22 22 21 21 21 22 24 25 27 28 28 28 30 31 31 31
18 19 21 24 29 27 23 23 23 22 21 20 21 20 21 22 23 24 25 26 26 27 28 29 29 30 32
20 23 24 21 20 21 23 23 20 19 20 20 21 22 21 21 22 22 23 24 26 27 28 29 31 32 33
23 20 18 18 20 21 24 23 21 19 19 21 22 22 18 18 21 22 23 24 26 27 28 29 30 30 32
18 17 19 20 21 23 23 24 22 20 21 22 22 21 20 20 20 21 22 24 26 27 30 30 31 32 33
18 19 20 21 22 22 22 23 24 23 24 24 22 21 20 19 19 21 23 25 28 29 30 34 34 33 33
20 21 22 22 23 23 23 24 24 23 24 24 25 25 24 22 21 23 24 26 28 30 31 32 32 33 31
21 21 22 22 21 22 22 22 22 21 22 23 25 26 25 25 25 25 26 26 29 32 32 31 32 34 34
22 21 20 20 20 21 22 22 21 21 21 22 24 26 27 28 26 26 27 28 29 31 30 30 30 32 33
21 20 20 20 20 21 21 21 21 21 22 23 25 25 24 25 26 28 28 29 29 30 30 29 28 30 34
21 20 20 21 20 19 20 21 21 21 22 24 24 24 22 20 23 26 27 28 29 30 28 30 29 31 33

GFSFLT2_sfc_30mbdewp_054.txt.gz
Dewpoint
19 21 21 21 22 22 21 23 25 23 22 23 24 24 26 27 27 28 29 30 30 31 33 33 34 35 35
20 20 21 20 21 23 26 25 20 21 21 22 23 24 26 27 26 27 28 28 28 29 30 30 31 32 33
21 21 21 23 25 26 22 21 20 19 21 21 23 26 25 25 26 25 26 27 27 27 28 29 29 30 31
22 24 25 27 25 22 19 19 19 21 22 25 25 23 24 24 25 25 25 26 26 26 27 28 30 31 31
25 23 23 23 22 19 18 19 20 23 25 22 22 22 23 24 24 23 24 26 26 27 28 29 30 31 32
24 25 24 18 19 19 20 21 22 23 22 21 22 22 23 22 23 24 25 26 27 27 29 30 31 31 31
23 19 18 19 21 23 25 26 23 22 23 22 21 20 21 21 22 24 25 26 28 28 28 29 30 31 32
20 20 21 22 25 27 24 23 23 22 22 21 21 20 20 22 23 23 25 26 26 27 28 29 30 31 31
21 23 23 23 21 21 22 22 20 20 20 19 20 21 21 21 21 22 22 23 25 26 28 29 30 31 31
22 22 19 19 20 20 22 22 21 19 18 20 20 20 18 18 19 20 21 22 24 25 27 29 30 31 34
18 18 18 19 20 21 22 24 21 20 20 22 22 21 20 19 18 20 21 22 23 24 27 29 30 31 33
17 19 20 21 21 22 23 23 24 24 24 25 22 22 20 19 18 20 21 23 25 26 27 29 31 32 32
20 21 21 21 22 22 22 23 23 23 24 23 23 23 23 21 21 22 22 24 26 28 28 30 32 31 31
19 20 21 21 20 20 21 21 21 20 21 22 23 25 23 24 24 23 24 25 27 28 31 32 31 30 31
20 20 20 19 20 20 20 21 20 19 20 21 23 24 25 26 24 24 25 26 28 28 30 28 29 29 31
20 20 19 19 19 20 20 19 19 19 21 21 22 24 23 23 24 26 27 26 27 27 28 29 28 28 30
20 19 19 20 19 18 18 19 19 19 20 22 24 24 21 19 21 24 26 27 27 27 28 28 28 28 30

GFSFLT2_sfc_30mbdewp_057.txt.gz
Dewpoint
20 22 21 21 22 21 22 22 24 25 23 24 24 25 26 27 27 29 30 30 31 32 33 34 35 35 34
21 21 22 22 22 23 24 26 24 23 23 23 24 25 26 27 28 27 27 28 28 28 29 29 31 33 34
21 23 23 25 26 26 28 24 23 21 21 22 24 26 27 26 26 27 27 27 28 28 27 28 29 31 32
22 23 24 23 24 25 22 20 19 19 21 24 25 25 24 25 25 26 26 26 27 27 29 30 31 32 32
24 22 23 22 22 20 19 20 20 22 23 24 23 22 23 23 24 24 25 26 26 27 29 31 31 32 33
24 23 22 20 20 20 20 21 21 23 23 22 23 22 22 22 22 24 25 26 27 27 28 30 31 31 32
23 22 21 21 21 22 25 26 23 23 23 22 21 21 21 21 22 23 25 26 27 27 28 28 29 30 31
23 22 22 23 27 25 23 23 22 21 21 20 20 19 20 21 22 23 24 25 25 26 27 28 29 30 31
22 24 24 22 21 21 21 20 18 19 20 20 19 20 20 20 21 22 21 22 23 25 26 27 29 30 31
22 19 18 19 20 20 21 21 20 19 18 19 20 21 18 18 18 19 20 21 23 24 25 27 28 29 31
16 17 18 19 21 22 23 23 21 20 20 22 22 21 20 19 19 20 20 21 22 23 24 26 28 30 32
17 18 20 21 21 21 22 23 23 22 23 23 21 21 20 18 17 18 20 22 24 24 26 27 29 30 30
19 19 20 21 22 22 22 21 21 22 23 22 22 22 22 20 19 20 21 22 24 25 27 27 27 29 31
20 20 20 20 20 20 20 20 19 18 20 21 21 22 21 22 22 22 22 22 24 25 27 28 28 30 30
19 19 19 19 19 19 19 19 19 18 18 19 21 22 23 23 22 22 23 23 24 26 26 27 27 27 28
19 18 18 18 18 19 20 19 17 17 18 19 19 20 21 22 25 23 24 24 25 26 27 26 26 27 28
18 18 19 19 19 18 18 18 18 18 18 19 22 21 18 17 19 23 25 26 25 25 26 27 27 27 28

GFSFLT2_sfc_30mbdewp_060.txt.gz
Dewpoint
19 21 22 22 22 23 23 23 24 26 27 26 26 26 26 27 27 28 29 31 32 32 32 34 33 34 35
20 22 22 23 23 23 24 25 25 27 25 25 25 25 26 27 28 28 27 28 29 29 28 29 31 33 34
21 22 23 24 25 24 24 25 25 24 22 22 23 26 27 27 27 27 27 28 28 28 28 29 30 31 32
22 22 24 24 23 22 21 20 20 21 21 23 25 26 25 25 26 26 26 26 27 27 28 29 31 31 32
23 23 24 22 21 21 20 21 21 22 22 23 24 23 23 24 24 24 25 26 26 27 27 29 30 31 32
25 24 23 22 21 21 21 21 20 23 23 22 22 22 22 22 23 24 25 25 26 28 28 30 30 31 32
23 23 23 22 22 22 23 24 23 23 22 20 20 20 21 21 22 23 25 26 26 26 27 28 30 30 30
24 24 23 24 27 27 23 22 22 21 20 18 19 19 20 20 21 23 24 25 25 25 25 26 27 28 30
22 24 25 23 21 21 21 20 18 18 19 19 19 19 19 20 21 23 22 22 22 24 25 26 27 28 29
19 17 17 18 20 21 20 20 19 18 18 19 20 21 17 19 19 20 20 21 22 23 24 25 27 27 28
16 17 18 19 20 21 22 22 20 18 19 22 21 20 20 18 19 20 20 20 20 21 23 25 26 28 29
18 18 19 20 20 21 22 22 23 22 22 22 19 19 18 17 17 18 19 21 22 23 24 25 27 28 28
19 19 19 20 21 21 21 22 21 21 22 22 22 21 20 18 17 18 20 20 22 23 24 25 26 27 27
19 19 20 19 19 19 19 19 19 18 19 20 21 21 19 19 20 19 20 20 22 23 24 24 26 28 28
18 18 18 18 18 18 19 19 18 17 17 18 19 21 21 20 19 20 21 21 22 23 24 25 26 26 27
18 18 17 17 18 19 20 19 17 17 17 18 18 19 18 20 22 21 22 22 23 24 25 25 25 26 27
17 17 18 19 18 17 18 18 18 17 18 18 19 20 17 15 17 20 23 25 25 25 24 24 25 26 27

GFSFLT2_sfc_30mbdewp_063.txt.gz
Dewpoint
19 19 20 22 22 23 24 24 24 25 26 27 28 28 27 28 28 29 30 31 32 32 33 33 34 34 35
19 20 21 22 23 23 24 24 24 25 26 27 26 26 27 27 28 28 30 30 29 30 30 30 30 30 31
20 22 22 23 23 24 24 24 24 23 23 23 24 26 27 28 27 27 27 28 28 27 28 29 29 29 31
22 22 23 24 24 23 22 21 21 21 22 24 25 26 26 25 26 27 27 27 27 27 27 28 29 30 32
22 23 23 24 22 22 21 21 22 22 22 23 24 24 23 24 24 24 25 27 28 27 28 29 29 30 32
22 25 24 22 22 22 22 22 21 22 23 21 22 21 21 21 22 24 26 26 27 27 27 29 29 31 31
24 23 22 22 23 23 24 24 23 22 22 20 21 20 20 20 22 23 25 26 27 27 26 27 29 30 31
24 24 24 24 26 25 23 22 22 21 21 18 18 18 19 20 22 23 24 26 26 26 25 25 25 26 27
22 24 24 22 21 22 21 21 18 17 18 18 18 19 19 19 20 22 23 24 23 23 25 25 26 26 27
19 17 17 18 21 21 20 19 19 17 18 19 19 20 16 18 19 19 19 21 22 23 24 24 25 25 27
16 17 19 19 20 21 22 21 19 18 18 22 20 20 19 18 18 19 19 19 20 20 22 23 24 25 26
18 18 19 20 20 20 21 21 22 22 22 23 19 19 17 16 15 16 18 19 20 21 22 23 25 26 27
18 19 19 20 20 20 20 20 20 21 22 22 21 20 19 17 16 17 18 19 20 20 22 23 24 25 25
18 19 19 19 18 19 18 18 18 18 19 20 21 20 18 19 19 17 18 18 20 21 22 23 24 25 25
18 18 17 18 17 18 18 18 17 17 17 18 19 20 20 20 18 18 19 19 20 21 22 23 23 24 25
17 17 17 17 17 18 19 18 16 17 17 18 18 18 18 18 21 19 20 20 21 22 23 23 24 25 25
16 16 17 18 18 17 17 17 17 18 18 19 20 19 17 15 17 19 22 23 23 24 24 24 24 24 25

GFSFLT2_sfc_30mbdewp_066.txt.gz
Dewpoint
19 19 20 20 22 23 24 24 24 26 26 26 27 27 27 28 28 29 30 31 32 33 34 34 34 34 35
19 19 20 21 22 23 23 24 24 25 26 26 26 26 27 28 28 29 30 32 32 32 31 31 31 33 32
20 21 22 23 23 24 24 25 25 24 23 24 25 26 28 27 27 27 27 28 28 28 28 28 29 29 30
21 22 23 23 24 24 23 22 22 22 23 25 25 25 25 25 26 27 27 27 28 28 28 28 28 29 30
23 23 23 23 23 23 22 22 22 23 23 23 23 23 23 24 24 24 24 26 28 28 28 30 31 30 30
23 24 24 23 22 22 22 23 21 22 22 22 22 21 22 22 22 24 25 26 27 27 27 28 30 30 30
24 23 22 22 23 23 24 24 22 22 22 20 21 20 20 20 22 23 24 26 27 27 27 27 28 29 30
24 23 23 24 25 24 22 22 22 21 21 19 18 18 19 20 21 23 24 25 26 26 25 26 27 28 27
23 24 24 22 22 23 21 20 17 17 18 18 18 18 19 19 19 22 22 23 23 23 24 25 25 25 27
20 17 18 18 21 21 20 19 18 17 18 19 19 19 16 18 18 20 19 20 21 23 24 24 25 25 25
16 18 19 19 20 21 21 20 19 18 18 21 20 19 19 17 18 18 18 18 18 19 21 22 23 24 25
18 18 19 20 20 20 20 21 21 20 21 21 19 18 18 16 15 16 18 19 20 20 20 22 23 25 26
18 19 19 19 20 19 19 19 19 19 20 20 20 20 19 17 16 17 18 18 19 20 20 21 21 23 23
18 18 19 18 18 18 18 18 17 17 18 19 20 20 18 18 18 17 17 18 19 20 21 21 22 23 24
17 17 17 17 17 18 17 17 17 17 17 18 19 20 20 20 18 18 18 18 19 20 20 20 21 23 24
16 16 16 16 16 18 19 17 16 17 17 18 19 19 19 19 22 19 19 20 20 21 22 21 21 22 24
15 15 15 16 18 16 17 17 18 18 18 20 22 22 18 17 19 21 24 24 24 24 24 24 23 24 25

GFSFLT2_sfc_30mbdewp_069.txt.gz
Dewpoint
20 20 20 20 21 22 24 24 24 25 26 26 28 28 28 28 28 28 29 30 32 33 34 35 36 35 35
19 19 20 22 22 23 24 24 23 23 26 27 27 28 28 28 28 29 30 31 32 31 31 31 33 33 34
21 22 22 23 24 24 24 25 24 24 24 25 26 27 28 27 27 28 28 28 28 28 29 29 30 30 31
22 24 24 24 25 24 21 20 21 22 23 24 26 25 25 26 26 27 27 27 28 28 28 28 28 28 30
25 24 24 23 22 21 20 21 22 23 22 22 21 22 23 23 23 24 25 27 28 28 28 29 31 32 33
26 24 22 21 21 21 22 22 21 21 21 21 22 21 21 21 22 24 25 26 27 27 27 29 30 31 31
23 21 21 20 24 24 24 23 22 22 22 20 21 20 20 20 21 23 24 25 26 27 27 27 28 30 30
22 21 23 24 25 25 23 23 22 20 20 18 19 18 19 19 21 22 24 25 24 25 26 25 26 27 28
23 25 24 23 23 23 22 21 19 18 18 18 18 19 19 19 19 20 21 22 22 23 24 25 25 26 26
21 18 18 19 22 21 21 21 20 18 18 20 19 19 18 17 18 19 19 19 21 22 23 24 24 25 26
17 18 19 19 20 21 21 22 20 19 20 22 20 19 19 18 18 19 19 20 19 19 20 22 23 24 25
18 19 20 20 21 21 21 21 21 22 22 22 19 19 18 17 17 18 20 21 22 21 21 22 23 24 25
19 19 20 20 21 21 21 21 21 21 22 22 21 21 20 18 18 19 20 20 22 22 22 22 22 22 23
19 19 19 20 20 20 20 20 20 19 21 22 22 21 19 20 20 19 20 20 21 22 23 23 23 23 23
18 18 18 18 18 19 19 19 19 19 19 21 22 22 22 22 20 21 21 21 22 23 23 22 23 23 23
17 17 17 17 18 19 21 20 19 19 20 21 22 22 22 23 24 22 22 23 24 25 25 23 22 24 25
17 17 17 17 19 18 19 19 20 20 21 22 24 23 20 18 21 23 27 27 26 25 26 26 25 26 26

GFSFLT2_sfc_30mbdewp_072.txt.gz
Dewpoint
31 29 27 25 22 21 22 22 22 23 25 26 28 29 30 30 30 30 30 30 30 32 33 34 34 35 35
24 21 21 22 23 24 23 22 22 23 24 27 29 28 29 29 30 30 29 29 29 30 30 30 31 31 32
23 24 24 24 25 24 23 23 21 20 22 24 25 27 28 29 29 29 29 29 29 29 29 29 29 29 30
24 24 24 23 24 22 20 18 18 21 22 24 24 25 25 26 27 27 27 28 28 29 29 29 28 29 30
25 23 24 21 20 19 18 19 21 22 22 21 21 21 22 23 23 23 24 26 27 28 28 28 28 29 30
26 24 21 19 18 18 21 22 21 22 21 21 21 21 21 21 22 23 25 26 27 27 27 28 29 30 31
23 20 18 17 23 24 23 24 24 23 21 20 20 20 20 19 21 22 24 26 27 27 27 27 26 28 30
21 19 19 22 24 24 24 23 22 21 21 20 20 19 20 20 22 22 24 24 25 26 26 26 26 26 27
22 25 25 24 23 23 23 22 21 20 21 20 20 20 22 22 21 21 22 22 23 24 25 26 26 26 26
20 18 18 19 21 22 23 22 22 20 20 21 21 21 20 19 20 21 21 22 22 23 24 24 25 25 26
17 18 19 20 21 22 23 23 22 21 22 24 23 21 21 21 20 22 22 22 22 23 23 24 24 25 25
19 20 22 23 24 24 24 24 24 24 25 24 21 21 20 19 19 21 23 24 25 25 24 24 24 25 26
21 22 22 23 24 25 26 26 25 25 26 25 24 22 21 19 20 21 22 23 24 25 26 25 25 25 25
21 21 22 22 23 24 23 23 22 23 26 26 26 25 21 22 22 21 22 22 24 25 26 26 26 26 25
20 21 21 22 22 23 22 23 22 22 22 25 26 27 26 25 23 23 23 24 25 26 26 25 25 26 28
20 20 21 21 21 22 23 23 22 21 22 24 25 24 25 25 27 25 25 26 27 28 29 28 27 28 28
20 20 20 20 21 22 22 23 22 22 23 25 26 25 22 21 23 25 26 28 27 27 27 27 27 28 28

GFSFLT2_sfc_30mbdewp_075.txt.gz
Dewpoint
33 33 32 32 31 30 27 23 23 24 25 26 28 28 30 31 31 31 31 31 31 31 31 32 34 35 36
30 29 29 25 25 27 27 25 23 23 25 25 26 28 29 30 30 31 31 31 31 31 31 31 30 31 31
24 25 26 25 25 25 25 25 23 21 20 22 25 26 28 29 30 30 30 31 31 30 30 30 30 30 30
25 26 26 27 26 25 23 22 19 20 22 24 25 25 25 25 26 27 27 27 28 29 29 29 29 29 30
27 27 26 24 22 21 19 19 22 24 24 24 23 24 24 24 24 24 24 26 27 28 28 28 28 29 29
29 25 24 21 20 19 22 23 22 24 23 23 24 23 23 23 23 23 24 25 26 28 28 28 27 28 28
25 23 21 19 23 24 25 25 25 25 23 22 23 22 23 22 22 23 25 26 27 27 28 28 28 28 27
24 21 20 21 24 25 25 24 23 24 24 22 23 22 23 23 24 24 25 26 26 26 27 27 27 27 27
19 23 25 26 26 25 24 24 23 22 23 22 22 23 23 23 23 24 23 24 25 26 26 26 26 26 26
22 20 19 19 21 23 24 23 22 22 23 24 24 23 22 21 22 23 23 24 24 25 25 26 26 25 25
18 18 20 21 23 24 24 24 23 22 23 25 25 23 22 21 22 22 22 23 24 25 25 25 26 26 26
19 22 23 24 25 25 25 25 26 25 25 25 23 22 21 19 19 20 22 23 24 25 26 26 26 27 27
22 23 23 24 24 24 25 26 25 26 26 26 25 25 23 20 19 20 22 22 24 25 27 27 27 27 27
22 22 23 23 23 24 24 23 23 23 25 26 28 28 24 24 23 22 22 22 23 25 26 28 28 28 27
21 22 21 22 22 23 24 23 23 22 22 23 26 28 29 27 24 23 24 24 25 25 26 27 28 28 28
21 21 20 21 21 22 24 24 23 22 23 23 23 25 26 26 28 26 26 27 28 28 28 28 27 27 28
22 21 20 21 21 22 23 23 22 21 23 25 25 25 22 20 22 25 26 27 26 26 27 27 27 27 29

GFSFLT2_sfc_30mbdewp_078.txt.gz
Dewpoint
33 34 33 33 33 32 31 29 25 25 26 27 28 29 29 31 32 32 32 32 32 32 32 33 33 34 35
32 31 30 28 27 26 26 26 26 25 26 26 25 25 28 29 30 31 32 32 31 31 32 32 32 32 32
25 26 26 26 25 26 26 26 25 25 21 22 24 27 28 29 29 29 29 30 30 30 30 30 30 31 31
26 26 26 27 27 26 25 22 20 22 24 25 26 26 26 27 27 27 27 27 28 28 29 29 29 29 30
26 27 27 24 23 22 19 22 22 23 24 24 24 24 25 26 25 25 25 27 27 28 28 28 29 28 29
28 26 26 22 21 22 22 20 21 24 24 25 25 24 25 25 25 25 26 26 27 28 28 28 28 28 28
27 26 22 21 21 20 22 24 25 26 25 22 24 24 24 24 25 25 26 27 28 29 29 28 28 28 29
24 22 21 21 24 24 25 24 24 24 25 22 23 22 23 24 25 25 26 27 27 27 27 28 28 28 28
20 23 25 26 26 25 23 22 22 22 23 23 23 23 22 23 24 25 24 24 25 27 27 28 28 27 27
22 21 21 20 21 22 21 21 21 22 23 22 22 23 21 23 22 22 23 24 24 25 26 27 27 27 27
19 19 21 23 25 25 25 26 24 23 24 26 24 23 22 21 22 21 21 22 23 23 24 26 27 27 28
20 22 23 23 24 24 24 25 26 26 26 27 23 23 21 20 19 20 21 22 23 23 24 25 26 26 26
21 22 22 23 24 24 25 26 27 27 26 25 25 25 24 22 21 21 21 22 23 24 25 25 25 26 26
20 21 22 23 22 24 23 23 22 22 24 26 26 27 25 25 25 23 23 23 24 25 26 26 27 27 27
22 21 22 22 22 23 23 23 22 22 22 24 25 26 26 26 25 25 25 25 26 26 26 26 27 28 29
21 21 22 21 21 22 23 23 23 22 23 23 24 25 25 25 27 26 26 25 26 27 27 27 26 27 27
23 22 22 22 21 21 21 22 22 22 23 24 25 24 21 19 21 24 24 25 26 27 27 27 26 27 27

GFSFLT2_sfc_30mbdewp_081.txt.gz
Dewpoint
34 35 34 34 34 35 34 31 29 28 28 28 29 29 30 30 30 32 33 33 33 33 34 35 36 36 36
32 33 32 31 29 27 26 25 26 28 27 28 26 25 27 29 31 31 32 31 31 32 32 33 33 34 34
26 27 28 27 26 26 26 26 26 26 22 23 25 26 29 30 30 30 29 30 30 30 30 30 31 31 31
27 27 28 28 27 26 25 23 21 23 22 25 27 27 27 28 28 27 27 28 28 29 29 29 29 30 30
27 27 27 24 24 21 20 22 21 23 24 24 24 25 26 27 26 26 28 28 28 29 29 29 29 30 30
28 26 26 22 21 21 20 20 22 24 25 24 25 24 25 26 27 27 27 28 28 29 29 29 30 30 30
26 26 24 21 21 21 23 23 23 25 25 23 24 23 24 24 25 26 27 28 29 29 28 29 29 29 29
24 23 22 22 22 23 24 24 24 24 25 21 23 22 23 24 25 26 27 26 26 27 28 29 29 30 30
23 25 25 24 24 25 22 20 20 21 23 22 22 22 22 23 23 25 24 25 25 27 27 27 28 28 29
21 20 20 22 26 23 21 20 21 20 23 24 22 24 20 22 22 22 23 23 24 24 26 26 27 27 28
19 21 23 24 24 25 26 25 24 22 24 26 24 23 23 21 22 21 22 22 22 23 24 25 27 28 28
22 22 22 23 24 24 24 25 25 25 26 27 24 24 22 21 20 21 22 23 23 23 23 25 26 26 27
20 21 22 23 24 23 24 26 27 27 26 26 25 25 24 22 22 22 22 23 24 25 24 25 25 26 25
20 21 22 22 22 24 23 24 23 22 23 24 26 26 24 24 24 23 23 24 25 26 26 26 27 27 27
22 21 21 22 22 23 22 22 21 21 22 23 25 25 25 25 24 24 24 24 25 25 26 26 27 27 27
21 21 22 22 21 22 23 21 20 21 21 22 23 23 23 23 26 25 25 24 25 25 26 26 26 27 27
20 21 22 22 21 21 20 19 19 20 21 22 22 22 20 18 20 22 22 23 24 25 26 27 26 26 27

GFSFLT2_sfc_30mbdewp_084.txt.gz
Dewpoint
35 35 35 35 36 37 36 36 34 32 30 30 30 30 31 30 30 31 32 33 33 34 35 36 37 37 38
33 33 33 34 34 30 28 27 27 27 29 29 29 27 27 29 30 31 32 33 32 33 33 33 34 35 35
29 29 29 28 27 27 26 27 26 26 24 24 25 25 28 30 31 31 31 30 31 31 30 31 31 31 32
26 28 28 28 27 26 25 22 22 22 22 26 26 27 27 28 29 29 28 29 29 30 30 30 30 30 31
27 27 27 24 23 21 20 21 21 22 24 25 25 25 26 27 27 27 29 30 29 30 30 30 30 31 32
27 25 25 23 21 20 20 21 20 24 25 24 24 24 24 25 27 28 28 29 29 29 30 29 30 30 30
26 26 25 22 20 20 21 22 22 24 24 22 24 23 23 24 25 27 29 29 28 28 29 30 30 30 30
25 24 23 22 21 20 22 23 24 23 24 21 23 22 23 23 25 27 27 26 27 27 28 28 28 29 29
25 25 25 25 25 25 24 21 19 21 23 23 22 22 23 23 23 25 25 24 25 26 27 27 27 28 28
22 19 22 25 28 24 21 20 20 20 23 25 23 23 19 21 22 22 22 23 24 24 25 27 27 27 27
19 21 23 24 24 24 25 24 22 22 24 26 24 24 23 21 22 22 22 22 22 23 25 25 27 28 26
22 21 22 23 23 23 24 24 26 25 26 27 24 23 22 20 20 21 22 23 24 23 24 25 26 27 27
20 20 22 22 22 23 23 25 26 26 25 24 25 24 24 22 21 22 22 23 24 25 25 25 25 26 26
20 21 21 21 21 23 22 22 22 21 22 21 21 22 23 23 23 22 23 23 24 25 25 26 26 27 27
22 22 21 22 21 22 23 22 21 19 19 20 22 24 24 24 22 23 23 23 24 25 25 24 25 26 27
22 22 21 21 21 22 23 22 19 19 19 20 21 21 21 22 25 23 23 24 24 24 24 24 25 26 27
21 20 21 22 21 21 19 18 18 18 18 19 19 20 18 17 19 21 21 21 23 24 25 26 25 26 27

GFSFLT2_sfc_30mbdewp_087.txt.gz
Dewpoint
35 35 35 36 37 39 38 37 36 36 33 31 31 32 32 31 31 31 32 33 33 33 35 36 37 37 38
33 33 33 34 34 34 31 28 27 28 29 30 30 29 29 29 29 30 32 32 34 33 32 33 33 34 35
31 31 30 28 27 27 27 27 26 25 24 25 25 27 29 30 31 31 31 31 32 31 31 31 32 32 32
27 28 28 28 27 26 24 21 21 21 23 25 28 27 28 29 30 30 30 30 30 31 31 31 32 31 31
26 26 26 24 23 21 20 20 20 22 24 24 24 24 25 27 27 28 30 31 30 31 31 31 31 31 32
26 25 24 24 21 21 20 20 14 24 24 23 24 23 24 24 27 27 28 29 30 30 30 29 30 31 32
25 25 25 24 21 20 20 20 22 24 24 21 24 22 23 23 25 27 29 29 29 29 29 29 29 29 29
26 24 24 22 21 20 21 22 24 23 24 20 22 22 23 23 25 27 28 27 26 27 28 29 28 28 28
25 25 26 26 26 24 24 23 19 21 23 22 22 22 23 23 23 25 26 24 25 26 27 28 27 28 28
21 20 23 26 27 23 20 20 20 20 22 23 23 22 19 20 21 21 21 24 25 25 26 27 27 27 27
19 21 23 24 24 24 24 23 21 21 23 26 24 23 23 20 22 22 22 22 22 23 25 26 27 28 28
21 21 22 22 23 23 23 24 26 25 25 26 24 23 21 20 19 20 22 23 24 24 24 25 26 27 27
19 20 22 23 22 23 23 24 24 25 26 25 24 23 22 21 20 21 22 23 24 24 24 24 25 25 25
19 21 22 21 21 22 22 21 21 21 21 20 20 19 20 22 22 21 22 22 23 24 25 25 25 26 26
22 21 22 21 21 22 22 22 21 19 19 20 21 21 21 21 21 22 22 22 24 24 24 23 24 25 25
21 22 22 21 21 22 23 21 19 18 17 17 18 18 19 20 24 21 22 22 23 23 23 23 23 24 25
21 21 21 21 21 20 19 19 18 17 17 17 17 17 17 16 18 20 20 20 21 21 23 24 24 24 25

GFSFLT2_sfc_30mbdewp_090.txt.gz
Dewpoint
36 36 36 37 37 39 38 37 37 38 35 33 32 32 33 33 32 32 32 32 32 33 34 36 36 36 38
34 34 34 35 35 34 33 31 29 29 30 31 31 31 30 30 29 29 31 32 33 32 33 33 34 33 33
31 31 30 28 27 28 27 26 25 25 25 26 26 27 29 30 31 31 31 32 32 32 32 32 33 33 33
28 28 28 28 27 25 23 21 21 21 22 26 27 28 28 28 29 30 30 30 31 31 32 32 32 32 32
25 26 25 24 23 21 20 20 19 22 23 23 24 24 24 27 27 28 29 30 31 31 32 31 31 30 31
25 25 24 23 22 21 19 18 10 23 24 23 24 23 23 24 26 28 28 29 31 31 30 30 30 30 30
24 24 24 24 21 20 20 19 20 23 24 21 23 22 23 23 25 27 29 30 29 28 29 30 30 30 29
26 25 24 22 21 20 21 22 24 24 24 20 22 22 23 23 26 28 29 27 26 27 28 29 28 28 28
26 25 27 27 25 23 23 23 20 21 23 22 22 22 23 22 22 25 27 25 26 27 27 28 28 28 28
21 20 24 27 27 22 20 20 20 20 22 23 22 21 19 20 21 21 22 23 25 25 26 27 27 27 26
19 22 23 24 24 24 23 22 21 21 23 25 23 23 22 20 21 21 21 22 22 24 25 26 27 28 26
21 21 21 22 23 23 23 24 26 25 26 26 24 23 21 20 19 20 21 23 23 24 24 25 27 27 27
19 20 21 23 22 22 22 23 23 24 25 25 26 24 22 20 19 20 21 21 23 23 23 23 24 25 25
19 20 22 21 21 22 22 21 21 21 21 20 19 18 19 19 20 20 21 21 21 23 24 24 25 25 25
21 21 20 21 21 22 22 22 21 19 18 19 20 20 19 19 18 20 20 21 22 22 23 23 23 24 24
20 21 21 21 21 21 22 22 19 18 17 16 16 16 18 19 22 20 20 20 21 22 22 22 21 23 24
20 21 21 20 19 20 19 19 17 17 16 16 15 15 15 15 17 20 22 21 20 21 21 22 22 23 24

GFSFLT2_sfc_30mbdewp_093.txt.gz
Dewpoint
37 37 38 38 38 39 38 37 36 37 36 34 33 33 33 33 33 33 33 33 32 33 34 35 34 34 35
35 35 35 36 35 35 32 29 28 29 31 31 32 32 31 31 31 30 30 32 33 33 33 33 34 34 34
33 33 31 29 28 28 27 26 24 25 25 26 27 27 30 29 30 31 32 33 33 33 33 33 33 33 33
30 29 28 28 27 26 25 23 22 20 21 26 27 29 29 28 29 30 31 31 31 31 32 33 33 32 32
28 26 27 25 24 22 21 20 20 22 22 22 23 23 23 26 27 27 28 30 31 32 32 32 31 31 31
26 24 24 24 22 22 21 19 12 23 24 22 24 22 23 24 26 28 29 30 31 31 31 31 31 30 30
22 23 23 24 24 23 21 21 21 24 24 21 22 21 23 22 25 28 29 30 29 28 29 30 30 30 29
26 26 24 24 23 23 24 24 24 24 24 22 22 22 22 23 26 29 29 29 28 28 28 29 29 29 29
26 26 27 28 25 25 25 24 21 21 23 22 23 22 23 22 21 25 26 27 26 27 27 28 29 29 28
20 20 24 28 27 24 24 23 23 22 23 24 23 22 23 21 21 22 22 23 25 25 26 27 28 27 26
19 21 23 24 24 24 24 24 23 22 23 25 24 23 22 22 22 23 22 22 22 23 24 26 27 28 27
20 21 22 24 24 23 23 24 25 25 25 27 24 23 22 21 20 22 22 23 23 24 23 25 27 26 27
20 21 23 24 25 24 24 24 24 24 25 26 25 24 23 21 21 21 22 22 23 24 26 24 24 25 25
20 22 23 23 22 23 23 22 21 22 24 23 22 21 21 21 21 21 21 21 24 24 24 24 25 25 24
22 22 21 20 21 22 23 22 21 21 21 21 22 21 21 21 20 20 21 22 23 24 24 23 24 24 24
22 21 21 21 21 22 22 22 20 20 20 20 19 19 20 20 22 21 21 22 23 24 24 23 22 23 23
22 21 22 21 20 20 20 19 19 19 19 19 18 17 17 16 18 23 23 22 22 21 22 22 22 24 23

GFSFLT2_sfc_30mbdewp_096.txt.gz
Dewpoint
39 38 39 40 39 39 39 38 37 37 35 34 34 34 34 34 34 34 34 34 33 33 35 35 35 34 36
38 37 38 38 37 36 34 30 30 29 31 32 32 32 32 31 32 32 32 32 33 34 34 35 34 34 34
37 36 34 34 32 30 28 27 24 26 25 26 28 29 28 30 30 30 31 33 33 33 33 33 33 34 34
34 33 32 29 30 29 27 25 24 21 21 23 26 26 29 29 29 29 31 32 31 31 33 33 33 33 33
33 31 31 28 27 25 23 21 20 20 18 18 20 21 22 25 27 29 28 29 31 32 33 33 32 32 32
30 28 26 25 23 21 20 19 15 20 21 19 23 22 23 23 24 28 29 30 31 32 31 31 31 32 31
20 18 20 22 25 24 21 20 20 21 24 21 22 21 22 22 25 28 30 30 31 29 30 30 30 31 31
24 24 24 24 24 26 26 25 23 23 24 24 22 22 22 23 25 30 30 31 30 29 29 29 30 30 30
27 27 28 27 25 25 25 23 23 20 23 22 24 24 24 24 22 26 27 28 29 28 28 28 29 29 29
21 22 23 28 29 25 26 26 25 24 24 24 25 25 26 24 23 23 23 23 24 27 26 27 28 27 27
17 18 20 24 23 23 25 27 25 25 25 25 24 24 24 25 25 25 25 24 23 24 25 25 26 28 27
17 19 21 23 25 25 24 25 25 25 26 27 24 24 23 23 22 25 25 26 26 25 25 25 26 26 27
18 21 24 26 27 26 26 26 27 26 25 26 25 25 25 23 22 23 24 25 26 27 27 26 26 25 26
20 22 25 25 23 23 23 23 23 23 27 27 26 25 23 22 22 22 23 23 26 27 27 26 26 25 25
22 23 23 23 22 23 23 23 22 21 22 23 24 24 24 23 22 23 24 25 26 27 26 25 26 25 25
23 23 22 22 21 22 23 22 21 21 21 22 21 21 21 22 25 24 24 24 26 26 26 24 24 25 24
23 23 23 22 21 20 20 20 20 20 20 21 20 19 18 16 18 25 24 23 24 24 24 24 24 25 24

GFSFLT2_sfc_30mbdewp_099.txt.gz
Dewpoint
41 40 40 40 40 40 39 39 38 37 36 35 35 35 35 35 35 35 35 34 33 33 35 35 35 34 35
39 38 40 39 39 38 35 33 32 31 32 33 33 33 33 32 33 32 32 32 33 34 34 35 35 34 34
38 38 36 36 35 32 31 29 25 28 28 28 29 30 30 30 31 31 30 32 33 34 34 34 34 34 34
37 35 34 32 33 31 29 27 26 22 22 22 25 25 27 29 29 29 30 32 33 32 32 34 34 34 34
36 34 32 30 29 28 26 24 23 21 21 20 20 23 24 26 27 28 29 29 30 32 33 33 33 33 34
34 33 30 29 26 24 22 21 19 22 22 21 23 24 24 24 26 27 29 30 31 32 33 32 32 32 33
28 22 24 23 26 24 23 22 22 24 24 22 24 22 24 22 25 27 29 31 31 32 31 31 31 31 31
26 25 27 26 28 27 26 26 24 24 24 24 24 23 25 25 27 26 31 31 32 31 30 31 30 30 31
28 27 27 26 25 26 25 24 24 22 24 23 26 26 26 26 26 26 29 29 31 31 31 29 30 29 30
27 24 26 29 29 26 28 27 26 25 26 25 25 25 25 27 25 25 25 25 26 26 28 28 28 29 28
17 19 21 25 24 24 27 27 25 25 25 26 25 24 24 25 26 27 27 27 26 27 27 27 27 27 28
17 18 20 23 25 26 26 27 26 26 28 28 24 24 23 22 23 26 27 28 27 27 27 28 28 28 28
19 21 24 27 27 27 27 27 27 26 26 27 26 25 25 23 23 23 24 26 26 27 28 27 26 27 26
21 24 26 25 26 24 23 23 23 23 27 27 27 25 23 23 23 23 23 23 26 26 27 26 26 27 27
22 24 25 25 23 23 24 23 23 22 23 27 27 26 25 23 22 22 23 24 26 27 27 24 25 26 27
23 24 24 24 24 23 23 23 22 21 22 24 25 24 22 22 25 23 24 25 26 26 25 25 24 24 26
25 25 25 25 23 23 23 22 21 20 21 22 23 21 18 16 19 24 24 24 24 24 24 24 23 24 25

GFSFLT2_sfc_30mbdewp_102.txt.gz
Dewpoint
41 40 40 40 40 40 40 40 38 39 38 37 37 37 36 36 37 36 35 35 34 33 35 35 36 35 35
40 39 40 41 40 38 36 34 33 34 34 34 35 35 34 33 33 32 32 32 32 34 34 35 35 35 35
39 38 37 38 36 33 30 29 27 31 30 29 30 31 31 31 31 31 31 30 32 33 34 34 34 34 35
37 35 34 34 34 30 28 29 26 22 23 23 24 26 27 29 30 30 30 31 33 33 32 33 34 34 34
35 33 31 30 30 30 29 27 24 22 20 21 22 24 25 28 29 28 30 30 30 31 33 34 34 34 34
34 33 32 30 27 26 24 21 19 23 22 21 23 23 25 24 28 29 29 30 32 33 33 33 32 32 33
33 31 27 26 25 23 22 22 21 24 23 21 24 22 25 26 28 27 28 31 32 32 33 31 31 32 32
25 26 27 28 26 25 24 24 24 24 24 21 25 23 26 26 29 27 30 32 32 32 31 31 32 31 31
29 28 27 26 25 25 23 22 23 23 24 23 26 25 26 26 27 26 27 30 31 31 31 30 30 31 31
26 27 29 28 28 26 26 23 25 22 25 23 24 24 21 26 26 25 24 27 27 28 28 28 29 29 28
19 20 26 24 24 26 27 25 24 24 25 24 23 24 23 23 24 25 26 27 26 27 29 28 28 29 28
18 19 21 24 24 26 26 26 26 26 28 24 22 23 23 22 21 24 24 24 25 26 27 27 29 29 29
18 19 22 24 25 25 25 25 24 24 25 25 23 23 23 23 22 23 23 23 25 24 25 27 26 26 26
19 23 26 26 24 24 23 23 23 22 25 25 24 24 22 22 24 22 22 22 23 24 25 27 26 26 26
22 24 24 23 23 24 23 22 22 21 22 26 27 26 25 23 22 22 22 22 23 24 27 24 24 25 25
20 23 24 23 23 21 22 23 21 21 21 23 26 25 24 23 24 22 22 22 23 24 24 23 22 23 25
22 22 23 23 24 22 21 21 21 21 21 20 22 21 18 16 17 20 23 22 23 22 23 22 21 22 24

GFSFLT2_sfc_30mbdewp_105.txt.gz
Dewpoint
41 40 41 41 41 42 42 40 41 42 41 40 39 39 39 38 39 38 37 36 34 34 35 35 36 35 35
40 40 40 40 40 38 36 37 34 36 37 36 37 37 37 36 35 34 33 33 33 33 34 35 35 35 35
40 39 38 39 38 34 30 29 29 34 35 35 34 33 33 32 32 32 31 31 32 33 34 34 34 34 35
39 37 35 36 35 32 29 29 26 25 25 25 26 27 28 29 31 31 31 30 32 33 33 33 34 35 35
36 34 32 32 33 31 30 28 25 23 21 20 23 24 25 29 29 29 30 30 31 31 33 34 34 34 34
35 34 32 31 31 29 26 23 22 23 21 19 23 22 24 25 27 30 30 30 31 33 33 34 34 33 33
35 34 32 30 28 25 23 22 20 24 22 18 25 22 24 27 30 29 29 29 31 33 33 33 32 32 32
31 28 27 27 26 25 23 24 24 24 24 15 25 23 26 26 29 28 28 32 33 33 33 32 32 33 32
29 30 30 29 28 25 23 20 21 23 24 22 25 25 26 26 27 28 27 29 32 32 32 31 30 31 32
28 29 29 29 28 24 24 19 23 21 25 23 24 23 20 25 26 26 25 28 28 28 29 29 30 30 28
20 25 26 26 25 27 26 24 24 24 26 23 22 23 23 22 23 25 25 26 27 27 28 29 29 30 29
19 20 24 23 25 26 26 25 25 25 26 21 21 22 21 21 20 23 23 24 25 25 25 26 29 27 28
18 20 22 24 25 24 24 23 22 23 26 24 23 21 21 20 20 22 23 23 24 24 24 24 24 26 25
19 21 24 24 23 22 22 22 22 23 25 25 25 24 22 22 22 22 22 21 22 23 23 24 26 27 25
21 23 25 24 24 23 21 21 21 21 21 24 27 24 24 23 22 21 21 22 23 22 22 23 25 24 24
22 24 24 23 22 21 21 20 20 20 20 21 23 25 24 23 26 22 21 22 22 22 22 22 22 23 23
19 21 23 23 24 21 21 21 20 20 19 20 21 22 19 16 17 22 22 21 23 22 20 19 18 19 21

GFSFLT2_sfc_30mbdewp_108.txt.gz
Dewpoint
42 41 42 42 43 44 43 43 43 44 43 42 42 41 41 40 41 40 40 38 37 35 36 36 36 36 35
41 41 41 41 41 40 40 37 36 39 39 39 38 39 39 39 38 37 35 34 34 34 34 34 35 35 35
41 40 39 40 39 35 32 31 30 36 37 37 37 37 35 35 34 33 32 31 32 33 33 34 34 35 35
41 38 38 39 38 34 31 29 27 28 28 28 29 29 30 31 32 32 32 31 31 32 33 33 34 35 35
39 36 35 36 36 33 32 29 26 24 22 21 24 23 25 29 29 30 31 30 31 33 33 34 34 35 34
37 37 35 34 33 31 29 26 26 23 21 19 23 21 23 24 28 30 30 30 30 31 33 34 34 34 33
38 36 35 33 31 29 26 24 22 23 21 17 24 22 24 25 30 31 30 30 30 32 33 34 34 33 33
35 34 32 31 30 28 25 24 24 24 23 14 25 23 25 26 31 29 28 30 33 33 33 34 32 33 33
31 32 31 30 28 25 23 22 20 22 24 21 24 25 25 26 27 30 28 28 32 32 33 32 32 31 32
29 29 29 30 29 24 24 19 21 20 24 22 24 23 21 24 26 26 26 28 30 31 30 30 30 30 29
25 26 27 25 26 27 24 22 21 22 25 22 21 22 21 22 23 25 25 24 25 26 28 29 30 30 29
19 23 24 23 26 26 26 26 25 24 26 21 21 21 19 20 20 22 22 23 24 24 24 27 27 27 28
18 20 24 24 25 24 23 23 23 26 25 22 21 20 20 19 20 21 22 22 23 23 23 23 23 25 25
19 21 23 24 24 22 22 22 21 22 24 23 23 23 22 22 22 21 22 21 21 22 22 22 23 25 26
21 22 23 24 23 22 21 21 20 20 21 25 27 25 23 22 21 21 21 21 22 23 21 21 22 24 25
22 22 23 24 23 22 21 20 20 20 21 21 22 24 23 21 25 22 21 21 22 22 21 21 21 22 23
22 22 23 23 24 21 21 21 20 19 19 19 20 21 19 17 18 24 23 21 21 22 22 21 18 18 19

GFSFLT2_sfc_30mbdewp_111.txt.gz
Dewpoint
44 42 43 43 45 45 44 44 45 45 45 44 43 43 43 43 43 43 42 41 39 38 38 37 37 36 35
43 41 42 42 43 43 41 39 39 41 41 41 40 40 41 41 41 40 38 37 36 36 35 34 34 35 35
44 41 40 41 40 36 36 33 33 38 39 39 40 40 39 38 37 36 34 34 34 34 33 33 34 35 35
42 39 39 40 39 36 33 31 30 30 32 32 34 35 34 34 34 34 33 31 31 32 33 34 34 35 35
40 38 37 37 38 36 34 30 27 25 24 23 26 25 26 30 29 33 33 32 31 33 34 34 35 35 35
40 40 37 37 36 34 32 30 31 24 22 21 22 21 22 23 28 30 30 30 31 32 33 34 35 35 34
40 39 38 36 35 32 30 27 26 23 21 20 24 21 24 24 29 30 31 31 31 32 34 34 35 34 33
36 37 36 35 34 33 29 25 24 24 22 16 25 22 25 26 32 31 30 29 31 32 33 34 34 33 33
34 34 34 33 30 28 26 25 23 22 24 19 24 24 25 25 26 31 29 29 31 33 33 34 33 32 32
28 29 30 31 29 26 25 24 21 19 24 21 24 23 22 24 26 26 26 30 31 32 32 31 31 30 29
26 27 25 25 26 25 24 22 19 20 25 23 22 22 20 23 23 25 25 25 25 26 28 29 30 30 29
21 23 24 24 26 26 26 26 25 24 27 22 21 21 19 20 20 22 22 23 24 24 24 27 26 27 28
18 19 24 24 25 24 24 24 25 25 23 21 21 18 19 18 19 21 21 22 23 22 23 23 22 23 23
19 21 24 24 23 23 23 22 21 22 24 22 21 21 21 20 20 20 21 20 21 21 22 22 22 23 24
21 21 22 24 24 22 22 21 20 20 22 24 25 24 23 21 21 21 20 21 22 22 22 20 21 22 23
22 22 23 23 23 22 21 21 21 20 21 22 23 24 23 22 24 20 20 20 21 22 21 21 20 21 22
25 23 23 23 25 23 22 22 21 20 20 19 20 21 18 15 18 25 22 21 22 22 22 22 21 20 19

GFSFLT2_sfc_30mbdewp_114.txt.gz
Dewpoint
46 43 44 44 46 46 46 46 47 47 47 46 45 45 45 45 46 46 45 44 42 41 41 40 39 38 36
46 44 43 43 44 44 42 41 41 44 44 43 43 43 43 43 43 42 41 40 39 39 37 36 36 36 35
47 42 41 42 41 39 39 35 35 40 41 40 41 42 42 42 40 39 37 36 36 36 34 33 34 35 35
44 41 40 41 40 37 36 33 32 33 36 38 39 39 39 38 37 36 34 33 33 33 33 34 35 35 36
42 40 38 38 38 37 36 33 31 29 27 27 29 28 29 32 33 35 34 32 31 32 33 34 34 35 35
40 40 39 39 38 36 34 32 33 27 26 23 23 23 22 24 29 32 33 32 31 32 34 34 35 35 35
39 39 39 38 37 35 34 33 33 25 23 22 23 20 23 24 29 30 30 31 31 32 33 35 35 35 34
34 36 36 37 37 36 33 28 25 24 22 23 24 21 25 25 33 31 32 31 31 32 33 34 35 35 34
36 36 36 35 33 31 30 28 25 23 23 19 24 23 25 25 27 33 31 30 31 33 34 34 35 33 32
28 29 30 31 29 27 29 28 25 24 24 20 23 24 22 25 26 27 28 30 31 31 32 32 33 30 30
26 27 25 26 26 25 25 24 21 18 25 22 23 23 21 24 24 25 26 26 27 28 31 31 31 31 29
21 22 24 24 26 26 26 25 25 23 27 23 22 22 20 22 23 23 23 23 24 25 24 27 28 29 30
19 19 23 24 24 23 24 25 25 26 24 22 22 19 19 18 19 21 22 23 23 22 22 23 23 23 21
19 21 24 24 23 22 22 21 22 23 25 22 22 21 20 20 19 20 21 20 21 21 22 22 23 23 22
21 20 21 23 23 22 22 21 20 20 22 24 24 22 22 21 20 20 20 20 21 21 22 21 21 22 22
23 22 21 22 22 22 21 21 21 20 20 23 25 24 23 22 24 20 19 20 20 22 22 20 19 20 21
24 23 23 23 24 22 22 22 21 21 20 20 20 20 18 13 18 25 21 20 21 22 21 21 20 20 21

GFSFLT2_sfc_30mbdewp_117.txt.gz
Dewpoint
49 46 46 46 47 47 49 48 49 49 49 48 48 48 49 50 50 49 48 48 48 45 43 42 42 41 39
49 46 45 45 46 46 45 43 44 47 46 46 45 45 45 46 46 45 45 44 42 42 41 41 40 38 36
48 44 43 43 43 43 42 39 38 43 44 44 43 43 44 44 43 42 40 39 40 38 37 36 36 37 36
45 44 42 42 41 39 38 36 35 36 40 41 43 43 42 42 40 39 38 37 37 36 34 34 35 35 36
42 41 40 39 39 39 39 35 33 32 33 33 35 34 35 38 38 36 35 34 33 34 34 34 35 36 37
40 40 40 40 39 38 36 35 35 31 31 29 27 29 27 30 32 36 36 34 32 32 34 34 35 36 36
39 39 39 39 38 37 35 35 35 29 27 28 24 24 24 22 27 31 33 33 32 32 34 35 36 35 35
35 35 36 36 38 37 35 32 28 26 25 28 24 23 24 24 30 31 32 31 32 32 33 35 35 35 35
34 36 36 36 35 33 33 32 30 27 24 21 24 23 25 25 27 34 32 33 32 32 33 34 35 35 34
28 28 28 29 30 28 32 32 28 28 25 21 23 25 23 26 27 30 32 31 31 31 33 34 35 33 33
26 27 26 26 26 26 26 27 27 25 25 25 26 25 25 26 26 28 28 30 31 31 32 32 33 32 31
21 22 23 24 26 26 26 27 27 26 28 26 25 26 25 25 25 26 26 26 27 29 29 30 31 32 32
21 22 24 26 26 26 27 26 27 27 26 24 25 24 25 25 24 24 25 25 26 27 26 27 28 27 27
24 23 25 25 25 25 24 25 25 26 26 25 24 24 23 23 23 23 25 24 25 25 25 25 25 24 24
23 23 23 24 24 24 24 23 23 23 24 25 25 25 25 24 23 23 24 23 24 25 24 24 24 25 24
25 24 24 23 23 24 24 24 23 23 22 24 25 25 24 24 25 23 23 23 23 24 24 22 21 23 23
25 25 25 24 24 24 23 23 23 23 24 24 24 23 20 18 20 26 23 23 23 23 23 22 21 22 20